SCP
-0 -0 -0 -0 -0 -0 -0 -0 0 -0 -0 0 -0 -0 -0 0 0 -0 -0 -0 -0 -0 -0 0 0 0 0 0 0 0 0 -0 0 0 0 0 0 0 0 0 0 0 0 0 0 0 0
-0 -0 -0 -0 -0 -0 -0 -0 0 -0 -0 0 -0 -0 -0 -0 0 -0 -0 -0 -0 -0 -0 0 0 0 0 0 0 0 0 -0 -0 0 0 0 0 0 0 0 0 0 0 0 0 0 0
-0 -0 -0 -0 -0 -0 -0 -0 0 0 -0 0 -0 0 -0 -0 0 -0 -0 -0 -0 -0 -0 0 0 0 0 0 0 0 0 -0 -0 -0 -0 -0 0 0 0 0 0 0 0 -0 0 0 0
-0 -0 -0 -0 -0 -0 -0 -0 0 0 0 -0 0 0 0 -0 0 0 0 0 0 0 -0 0 0 0 0 0 0 0 0 0 -0 -0 -0 -0 -0 0 0 0 0 0 0 0 -0 0 0
-0 -0 -0 -0 -0 -0 -0 -0 -0 0 0 0 0 0 0 -0 0 0 0 0 0 0 0 0 0 0 0 0 0 0 0 0 -0 -0 -0 -0 -0 0 0 0 0 0 -0 -0 0 0 0
-0 -0 -0 -0 -0 -0 -0 -0 -0 0 0 0 -0 -0 -0 -0 0 0 0 0 0 -0 0 0 0 0 0 0 -0 -0 0 0 0 -0 -0 -0 -0 0 0 0 0 -0 -0 -0 0 0 0
-0 -0 -0 -0 -0 -0 -0 -0 -0 -0 -0 -0 -0 -0 -0 -0 0 0 0 0 0 0 0 0 0 0 0 -0 0 0 -0 -0 -0 -0 0 -0 0 0 0 -0 -0 -0 -0 -0 0 0 -0
-0 -0 -0 -0 -0 -0 -0 -0 -0 -0 -0 -0 -0 -0 -0 -0 0 0 0 0 0 0 0 0 0 0 0 0 -0 0 -0 -0 -0 0 0 0 0 0 0 0 -0 -0 0 0 -0 -0 0
-0 -0 -0 -0 -0 -0 -0 -0 -0 -0 -0 -0 -0 -0 -0 -0 0 0 0 0 0 0 0 0 0 0 0 -0 -0 -0 0 -0 0 0 0 0 0 0 -0 0 0 0 -0 -0 -0 0 0
0 0 0 -0 -0 -0 -0 -0 -0 -0 -0 -0 -0 -0 -0 -0 0 0 0 0 0 0 0 -0 -0 0 -0 0 0 0 -0 -0 0 0 0 0 -0 -0 -0 -0 0 -0 -0 0 -0 -0 0
0 0 0 0 -0 -0 -0 -0 -0 -0 -0 -0 -0 -0 -0 -0 -0 0 -0 0 0 0 -0 -0 0 -0 0 -0 -0 -0 -0 0 0 0 0 0 -0 -0 -0 -0 0 -0 -0 0 -0 -0 -0
0 0 0 0 -0 -0 -0 -0 -0 -0 -0 -0 -0 -0 -0 -0 -0 -0 -0 0 0 0 -0 0 0 0 -0 -0 0 -0 0 0 0 0 -0 -0 -0 -0 -0 -0 -0 0 0 0 -0 0 0
0 0 0 -0 -0 -0 -0 -0 -0 -0 -0 -0 -0 -0 0 0 0 0 0 0 -0 0 -0 0 0 0 0 0 0 -0 0 0 0 -0 -0 -0 -0 -0 -0 -0 0 -0 -0 -0 0 0 -0
0 0 0 -0 -0 -0 -0 -0 -0 -0 -0 -0 -0 0 -0 0 0 0 0 0 -0 0 -0 0 0 0 0 0 0 0 0 -0 -0 -0 -0 0 -0 -0 0 -0 -0 0 -0 -0 0 0 -0
0 0 0 -0 -0 -0 -0 -0 -0 -0 -0 -0 -0 0 0 0 0 -0 0 -0 0 0 -0 0 -0 0 0 -0 0 0 -0 -0 0 -0 0 -0 -0 0 0 0 -0 0 -0 0 -0 0 -0
0 0 -0 -0 -0 -0 -0 -0 -0 -0 -0 -0 0 0 0 0 0 -0 0 0 0 0 0 0 0 0 0 -0 0 -0 0 0 -0 0 0 0 -0 0 0 -0 0 -0 0 -0 -0 0 0
0 0 0 -0 -0 -0 -0 -0 -0 -0 -0 -0 0 0 0 0 0 0 0 0 0 0 0 0 0 0 0 0 -0 -0 0 0 0 0 -0 0 -0 0 0 0 0 0 -0 0 0 0 0
0 0 0 -0 -0 -0 -0 -0 -0 -0 -0 0 0 0 0 0 0 0 0 0 0 0 0 0 0 0 0 0 0 0 0 0 0 0 0 0 0 -0 0 0 0 0 0 -0 -0 0 0
0 0 0 -0 -0 -0 -0 -0 -0 -0 -0 0 0 0 0 0 0 0 0 0 0 0 0 0 0 0 0 0 0 0 0 0 0 0 0 0 0 0 0 -0 -0 0 0 0 0 0 0
0 0 0 -0 -0 -0 -0 -0 -0 -0 -0 0 0 0 0 0 0 0 0 0 0 0 0 0 0 0 0 0 0 0 0 0 0 0 0 0 0 0 0 0 0 0 0 0 0 0 0
0 0 0 -0 -0 -0 -0 -0 -0 -0 -0 0 0 0 0 0 0 0 0 0 0 0 0 0 0 0 0 0 0 0 0 0 0 0 0 0 -0 0 0 0 0 0 0 0 0 0 0
0 0 0 0 0 -0 -0 -0 -0 -0 -0 0 0 0 0 0 0 0 0 0 0 0 0 0 0 0 0 0 0 0 0 0 0 0 0 0 0 0 -0 0 0 -0 -0 0 -0 -0 -0
0 0 0 0 -0 -0 -0 -0 -0 -0 -0 0 0 0 0 0 0 0 0 0 0 0 0 0 0 0 0 0 0 0 0 0 0 0 0 0 0 0 -0 0 -0 -0 -0 0 -0 -0 -0
0 0 0 0 0 0 -0 -0 -0 -0 0 0 0 0 0 0 0 0 0 0 0 0 0 0 0 0 0 0 0 0 0 0 0 0 0 0 0 0 0 0 -0 0 0 0 0 0 0
0 0 0 0 0 0 -0 -0 -0 0 0 0 0 0 0 0 0 0 0 0 0 0 0 0 0 0 0 0 0 0 0 0 0 0 0 0 0 0 0 0 0 0 0 0 0 0 0
0 0 0 0 0 0 0 0 0 0 0 -0 0 0 0 0 0 0 0 0 0 0 0 0 0 0 0 0 0 0 0 0 0 0 0 0 0 0 0 0 0 0 0 0 0 0 0
0 0 0 0 0 0 0 0 0 0 0 0 0 0 0 0 0 0 0 0 0 0 0 0 0 0 0 0 0 0 0 0 0 0 0 0 0 0 0 0 0 0 0 0 0 0 0
0 0 0 0 0 0 0 0 0 0 0 0 0 0 0 0 0 0 0 0 0 0 0 0 0 0 0 0 0 0 0 0 0 0 0 0 0 0 0 0 0 0 0 0 0 0 0
0 0 0 0 0 0 0 0 0 0 0 0 0 0 0 0 0 0 0 0 0 0 0 0 0 0 0 0 0 0 0 0 0 0 0 0 0 0 0 0 0 0 0 0 0 0 0
Wind_Speed_500mb
41 42 42 44 45 47 48 49 49 49 48 45 27 14 8 9 9 8 5 1 3 6 8 11 13 18 15 11 2 9 13 23 24 25 14 5 11 15 16 15 4 9 7 6 3 4 6
42 42 43 45 46 48 49 50 50 50 48 45 26 12 8 9 10 10 6 2 1 4 6 9 11 18 10 15 8 3 12 21 20 20 13 8 8 18 16 19 11 22 17 18 12 14 5
44 43 44 45 46 47 48 49 51 51 49 45 24 12 9 10 14 15 12 6 2 4 6 9 10 17 11 2 6 14 18 26 21 12 7 7 13 16 22 18 15 14 9 6 9 15 8
44 44 45 45 46 46 47 48 50 49 49 44 24 11 7 9 12 13 12 10 5 5 8 10 12 17 5 19 6 11 19 16 16 11 9 4 13 18 14 23 10 8 13 10 13 11 11
44 44 44 45 46 46 48 50 50 50 49 43 23 8 5 7 10 13 14 7 9 9 10 13 14 10 12 14 8 20 19 10 14 12 13 14 14 13 19 21 10 6 19 16 10 7 7
45 45 45 46 46 48 48 49 50 50 47 42 23 6 3 5 8 13 13 9 10 12 16 17 11 8 7 14 15 20 17 14 9 13 9 9 9 18 15 13 21 33 30 26 15 10 11
45 46 46 48 48 48 50 50 50 48 46 39 24 6 4 3 7 12 11 8 5 5 12 5 17 5 16 17 18 17 18 12 10 14 19 4 18 18 21 22 22 29 26 22 13 11 9
45 46 48 50 51 52 52 51 50 49 45 37 26 8 7 4 5 9 5 2 9 5 6 9 12 7 11 18 15 20 19 15 15 23 6 19 24 17 13 13 24 19 18 12 15 8 12
46 47 49 51 52 53 54 53 52 50 46 38 26 10 8 9 8 9 6 6 20 4 10 12 12 16 16 20 18 31 30 16 19 22 23 21 27 26 26 22 20 15 12 20 19 4 7
48 49 51 52 54 56 56 55 53 51 47 41 27 11 8 9 10 6 7 10 22 5 12 18 17 14 17 16 13 21 32 20 15 22 17 17 14 18 21 22 21 27 14 11 14 16 6
50 52 53 55 56 58 58 57 56 53 49 43 30 12 10 15 8 5 12 15 13 5 4 10 16 11 16 18 25 20 31 18 19 15 13 7 10 16 26 23 12 11 8 9 10 11 11
52 54 55 57 58 60 60 59 57 54 51 44 31 16 14 18 19 17 8 12 3 14 9 14 12 19 22 21 13 19 24 18 10 15 23 33 35 17 24 15 14 3 7 6 6 7 7
55 56 57 58 59 60 61 61 59 56 52 47 30 14 13 14 9 10 9 3 13 1 8 14 12 16 21 23 17 25 28 30 17 17 21 17 18 10 14 20 10 17 26 10 10 11 17
56 58 59 59 60 60 61 62 60 58 55 49 27 8 13 17 14 11 5 12 3 8 4 7 7 13 16 18 13 21 20 22 24 21 15 10 23 9 4 10 16 9 21 10 6 1 20
58 59 59 59 59 59 61 62 61 57 56 50 15 6 10 13 11 12 13 16 6 5 3 4 12 18 17 14 8 19 25 15 4 23 11 6 10 12 9 3 10 9 16 17 11 5 14
57 58 58 58 58 58 59 61 61 57 54 50 6 8 4 7 11 9 13 3 3 4 5 9 10 7 16 20 17 15 18 6 10 15 11 5 9 8 12 7 8 12 9 13 13 6 11
55 56 57 57 56 56 57 59 60 56 52 45 3 9 4 5 11 14 13 3 1 1 6 7 2 7 5 10 19 15 5 12 4 14 16 8 8 6 13 9 18 8 17 6 9 9 12
52 53 54 56 56 54 54 55 56 57 50 41 6 10 6 8 15 6 11 1 3 4 2 5 6 4 2 5 8 9 9 8 5 18 11 3 13 13 18 7 3 4 11 20 15 14 3
49 51 53 56 56 54 52 50 49 50 49 44 16 7 10 7 13 16 7 7 6 6 2 5 11 6 2 2 5 2 6 7 6 12 8 9 7 16 13 21 13 4 6 6 10 13 9
47 49 52 53 54 54 52 49 45 42 36 30 10 5 4 3 4 14 6 10 9 5 6 6 5 9 13 13 7 3 10 7 6 4 4 6 8 12 15 19 11 7 5 7 18 12 7
45 48 51 52 53 52 52 49 44 38 29 17 11 6 5 2 7 9 8 4 12 11 4 4 8 9 17 14 14 12 8 14 13 13 8 11 17 2 3 6 10 16 18 16 19 19 19
44 46 48 49 50 50 50 50 44 38 25 14 11 10 9 10 9 12 8 7 11 3 6 7 5 8 10 21 9 10 10 12 15 17 16 12 13 10 18 13 18 24 27 27 27 27 28
43 43 45 46 47 48 49 48 48 42 30 15 15 11 9 3 6 9 3 3 1 8 5 1 10 13 12 8 15 15 17 14 9 19 22 18 15 14 23 11 19 25 36 36 31 26 21
40 41 42 42 43 44 44 45 45 43 38 26 23 11 10 6 8 6 6 7 12 12 16 9 15 12 9 20 19 16 20 22 18 20 19 18 19 16 20 23 30 25 7 18 24 24 20
38 40 41 41 42 42 42 40 40 38 34 28 25 11 10 12 11 19 14 16 18 18 22 22 21 13 20 20 15 19 21 24 28 26 21 21 19 18 18 23 28 29 24 19 20 22 18
38 38 38 39 40 41 41 41 38 35 30 22 21 16 6 15 6 10 17 14 17 15 16 22 13 15 12 14 19 31 27 31 25 18 14 20 24 21 16 24 24 9 15 19 11 22 22
36 35 35 37 38 39 40 41 39 35 30 22 17 17 6 14 13 11 13 14 11 14 15 12 9 11 13 17 26 31 35 36 35 34 14 18 21 29 23 22 18 14 9 17 24 5 22
34 34 34 34 36 37 37 39 40 39 34 26 16 22 11 12 32 29 24 24 24 17 14 11 15 17 14 18 22 26 28 32 33 41 34 28 18 22 23 27 28 12 15 30 9 10 19
31 31 32 32 33 33 34 34 35 35 38 36 14 24 25 17 23 31 37 38 30 24 26 22 22 15 9 9 8 12 18 16 31 32 37 32 33 23 20 16 8 11 34 35 3 1 22
Wind_Direction_500mb
25 23 21 18 16 13 10 8 6 3 2 358 355 343 345 353 359 8 8 35 200 205 196 200 197 199 214 231 325 343 192 171 167 166 183 237 306 339 7 350 40 298 8 274 261 325 328
23 20 19 16 14 11 9 6 4 3 2 0 356 358 13 24 30 27 19 14 158 192 190 189 187 190 188 224 318 126 185 172 169 179 208 269 323 332 292 318 323 324 310 288 248 238 192
20 18 15 15 14 11 9 4 3 2 2 3 5 25 49 59 54 48 44 48 135 180 170 163 170 184 208 64 280 152 169 164 169 175 213 269 299 310 321 311 336 311 314 99 198 202 153
17 16 15 14 13 11 8 4 2 1 1 6 14 43 66 52 46 44 42 49 86 132 141 145 163 162 207 226 237 161 156 170 168 170 180 236 318 298 290 306 228 309 221 32 110 171 155
17 15 15 13 12 11 8 6 2 1 1 8 16 39 51 41 39 31 29 56 76 104 126 134 141 161 151 190 164 172 159 184 188 199 239 270 301 299 296 316 300 99 353 20 84 199 163
17 16 14 14 12 11 10 7 4 1 1 5 12 14 5 19 22 17 21 75 94 103 115 107 144 229 184 156 166 163 166 148 191 185 200 251 259 284 240 319 347 328 337 344 12 122 225
17 15 14 13 11 10 9 6 4 1 2 1 2 341 296 341 0 10 33 105 107 152 209 316 142 46 127 137 130 168 171 176 187 229 255 195 283 279 350 342 329 312 310 319 30 119 242
16 13 12 11 10 8 7 6 4 1 1 359 357 325 270 277 321 339 7 258 350 317 176 210 208 197 155 160 154 174 173 217 230 248 168 247 253 20 348 306 304 313 303 356 106 114 199
12 10 8 6 5 5 4 3 1 360 359 356 358 327 254 251 276 284 274 282 339 320 242 146 170 178 182 182 191 181 181 210 242 244 253 272 295 310 308 310 316 279 315 347 342 316 205
6 4 2 2 1 1 1 0 359 358 357 352 353 335 247 239 287 248 268 296 344 227 202 134 175 164 172 198 176 173 187 208 224 253 255 277 303 304 303 302 297 296 13 315 306 297 21
1 359 358 357 357 356 356 357 356 355 354 351 340 329 249 227 231 282 266 296 334 230 165 127 130 168 181 215 130 184 191 216 235 197 242 116 300 298 285 298 300 9 10 328 309 267 255
358 356 355 355 354 354 353 353 354 352 351 349 333 312 248 241 251 262 273 309 269 230 93 152 148 181 179 199 164 142 186 219 279 252 236 266 285 280 281 288 275 269 241 244 228 259 186
355 354 353 352 352 352 351 352 352 351 348 347 334 297 234 221 217 225 287 264 224 82 148 158 177 188 217 164 151 176 189 202 225 219 210 217 209 203 233 247 212 233 253 234 205 195 55
351 350 350 350 350 349 349 350 351 351 347 347 336 265 206 219 227 247 251 239 251 89 120 119 197 190 210 167 186 191 197 221 220 261 276 262 153 175 101 299 332 321 321 317 277 343 109
349 348 347 348 347 347 347 349 350 352 348 348 339 201 187 223 230 217 242 243 107 107 76 204 156 198 188 189 263 202 217 229 213 208 269 222 134 126 52 349 296 118 241 18 292 182 262
346 347 347 347 346 346 346 347 348 351 351 348 344 161 203 201 186 187 252 339 133 2 308 217 241 277 191 188 205 206 177 155 213 215 266 90 273 122 114 233 105 301 359 237 204 269 288
345 346 347 348 347 347 347 348 347 350 354 351 73 211 231 151 170 234 252 98 231 359 274 262 305 172 101 157 225 206 173 129 203 169 215 282 266 132 238 26 340 243 218 222 317 311 304
344 347 350 349 349 348 347 349 350 349 355 6 17 226 298 201 223 242 235 349 4 273 255 230 278 284 288 167 166 214 203 37 149 168 194 56 307 287 357 86 343 318 315 272 280 166 304
345 346 348 348 349 349 350 351 352 351 355 359 338 304 336 188 236 213 168 222 274 270 205 216 222 258 184 192 226 252 122 91 162 213 192 166 247 290 171 173 179 251 47 302 274 281 233
345 347 349 350 351 351 351 353 354 353 353 354 335 261 160 63 344 303 241 208 217 192 242 315 269 232 202 212 216 208 180 129 148 195 208 227 274 297 322 1 5 218 235 312 290 271 242
348 349 349 349 351 353 354 354 355 357 355 2 357 54 359 342 122 325 283 323 242 221 194 300 195 245 231 229 216 216 207 154 166 154 211 266 267 270 313 283 280 300 288 274 272 296 291
351 351 353 355 356 358 359 360 3 3 7 35 1 349 331 291 290 273 161 179 273 281 291 170 293 315 244 239 301 249 234 222 202 182 214 218 259 242 267 237 255 272 273 266 265 269 273
355 356 357 358 360 2 5 5 9 16 23 43 14 348 318 145 266 255 250 309 298 315 168 333 6 307 225 83 321 289 279 293 274 221 213 236 238 238 267 284 283 267 254 254 257 256 252
357 358 359 360 0 3 6 9 12 18 27 39 18 2 306 264 270 295 305 288 284 297 289 305 305 284 26 318 296 250 243 232 228 223 247 221 241 260 272 279 257 273 334 288 278 266 242
357 358 359 360 1 2 5 9 10 14 19 30 24 31 340 291 318 270 277 289 283 267 261 279 279 278 305 295 258 231 222 225 226 226 231 235 243 255 253 246 257 270 256 227 213 236 220
356 357 359 360 0 360 1 4 8 9 13 21 16 21 340 310 73 335 302 292 287 279 268 249 266 286 270 257 236 235 232 230 227 180 237 233 236 242 208 257 261 297 346 201 226 256 184
355 356 359 1 1 2 2 3 3 8 7 15 2 11 344 284 286 297 272 308 309 281 275 261 304 262 230 238 236 236 241 243 236 216 184 189 207 216 224 251 261 255 247 181 215 115 156
358 359 359 358 357 358 0 1 4 4 9 11 338 349 357 280 281 269 259 271 271 256 273 29 272 208 249 245 243 237 239 245 232 244 225 202 213 218 242 253 251 194 187 202 244 135 160
354 356 358 358 356 355 355 356 1 2 2 5 345 333 320 263 264 276 265 257 254 255 269 254 278 299 321 283 260 274 247 242 244 235 226 237 231 241 213 222 161 218 223 208 350 161 191
Wind_Speed_850mb
41 42 42 44 45 47 48 49 49 49 48 45 27 14 8 9 9 8 5 1 3 6 8 11 13 18 15 11 2 9 13 23 24 25 14 5 11 15 16 15 4 9 7 6 3 4 6
42 42 43 45 46 48 49 50 50 50 48 45 26 12 8 9 10 10 6 2 1 4 6 9 11 18 10 15 8 3 12 21 20 20 13 8 8 18 16 19 11 22 17 18 12 14 5
44 43 44 45 46 47 48 49 51 51 49 45 24 12 9 10 14 15 12 6 2 4 6 9 10 17 11 2 6 14 18 26 21 12 7 7 13 16 22 18 15 14 9 6 9 15 8
44 44 45 45 46 46 47 48 50 49 49 44 24 11 7 9 12 13 12 10 5 5 8 10 12 17 5 19 6 11 19 16 16 11 9 4 13 18 14 23 10 8 13 10 13 11 11
44 44 44 45 46 46 48 50 50 50 49 43 23 8 5 7 10 13 14 7 9 9 10 13 14 10 12 14 8 20 19 10 14 12 13 14 14 13 19 21 10 6 19 16 10 7 7
45 45 45 46 46 48 48 49 50 50 47 42 23 6 3 5 8 13 13 9 10 12 16 17 11 8 7 14 15 20 17 14 9 13 9 9 9 18 15 13 21 33 30 26 15 10 11
45 46 46 48 48 48 50 50 50 48 46 39 24 6 4 3 7 12 11 8 5 5 12 5 17 5 16 17 18 17 18 12 10 14 19 4 18 18 21 22 22 29 26 22 13 11 9
45 46 48 50 51 52 52 51 50 49 45 37 26 8 7 4 5 9 5 2 9 5 6 9 12 7 11 18 15 20 19 15 15 23 6 19 24 17 13 13 24 19 18 12 15 8 12
46 47 49 51 52 53 54 53 52 50 46 38 26 10 8 9 8 9 6 6 20 4 10 12 12 16 16 20 18 31 30 16 19 22 23 21 27 26 26 22 20 15 12 20 19 4 7
48 49 51 52 54 56 56 55 53 51 47 41 27 11 8 9 10 6 7 10 22 5 12 18 17 14 17 16 13 21 32 20 15 22 17 17 14 18 21 22 21 27 14 11 14 16 6
50 52 53 55 56 58 58 57 56 53 49 43 30 12 10 15 8 5 12 15 13 5 4 10 16 11 16 18 25 20 31 18 19 15 13 7 10 16 26 23 12 11 8 9 10 11 11
52 54 55 57 58 60 60 59 57 54 51 44 31 16 14 18 19 17 8 12 3 14 9 14 12 19 22 21 13 19 24 18 10 15 23 33 35 17 24 15 14 3 7 6 6 7 7
55 56 57 58 59 60 61 61 59 56 52 47 30 14 13 14 9 10 9 3 13 1 8 14 12 16 21 23 17 25 28 30 17 17 21 17 18 10 14 20 10 17 26 10 10 11 17
56 58 59 59 60 60 61 62 60 58 55 49 27 8 13 17 14 11 5 12 3 8 4 7 7 13 16 18 13 21 20 22 24 21 15 10 23 9 4 10 16 9 21 10 6 1 20
58 59 59 59 59 59 61 62 61 57 56 50 15 6 10 13 11 12 13 16 6 5 3 4 12 18 17 14 8 19 25 15 4 23 11 6 10 12 9 3 10 9 16 17 11 5 14
57 58 58 58 58 58 59 61 61 57 54 50 6 8 4 7 11 9 13 3 3 4 5 9 10 7 16 20 17 15 18 6 10 15 11 5 9 8 12 7 8 12 9 13 13 6 11
55 56 57 57 56 56 57 59 60 56 52 45 3 9 4 5 11 14 13 3 1 1 6 7 2 7 5 10 19 15 5 12 4 14 16 8 8 6 13 9 18 8 17 6 9 9 12
52 53 54 56 56 54 54 55 56 57 50 41 6 10 6 8 15 6 11 1 3 4 2 5 6 4 2 5 8 9 9 8 5 18 11 3 13 13 18 7 3 4 11 20 15 14 3
49 51 53 56 56 54 52 50 49 50 49 44 16 7 10 7 13 16 7 7 6 6 2 5 11 6 2 2 5 2 6 7 6 12 8 9 7 16 13 21 13 4 6 6 10 13 9
47 49 52 53 54 54 52 49 45 42 36 30 10 5 4 3 4 14 6 10 9 5 6 6 5 9 13 13 7 3 10 7 6 4 4 6 8 12 15 19 11 7 5 7 18 12 7
45 48 51 52 53 52 52 49 44 38 29 17 11 6 5 2 7 9 8 4 12 11 4 4 8 9 17 14 14 12 8 14 13 13 8 11 17 2 3 6 10 16 18 16 19 19 19
44 46 48 49 50 50 50 50 44 38 25 14 11 10 9 10 9 12 8 7 11 3 6 7 5 8 10 21 9 10 10 12 15 17 16 12 13 10 18 13 18 24 27 27 27 27 28
43 43 45 46 47 48 49 48 48 42 30 15 15 11 9 3 6 9 3 3 1 8 5 1 10 13 12 8 15 15 17 14 9 19 22 18 15 14 23 11 19 25 36 36 31 26 21
40 41 42 42 43 44 44 45 45 43 38 26 23 11 10 6 8 6 6 7 12 12 16 9 15 12 9 20 19 16 20 22 18 20 19 18 19 16 20 23 30 25 7 18 24 24 20
38 40 41 41 42 42 42 40 40 38 34 28 25 11 10 12 11 19 14 16 18 18 22 22 21 13 20 20 15 19 21 24 28 26 21 21 19 18 18 23 28 29 24 19 20 22 18
38 38 38 39 40 41 41 41 38 35 30 22 21 16 6 15 6 10 17 14 17 15 16 22 13 15 12 14 19 31 27 31 25 18 14 20 24 21 16 24 24 9 15 19 11 22 22
36 35 35 37 38 39 40 41 39 35 30 22 17 17 6 14 13 11 13 14 11 14 15 12 9 11 13 17 26 31 35 36 35 34 14 18 21 29 23 22 18 14 9 17 24 5 22
34 34 34 34 36 37 37 39 40 39 34 26 16 22 11 12 32 29 24 24 24 17 14 11 15 17 14 18 22 26 28 32 33 41 34 28 18 22 23 27 28 12 15 30 9 10 19
31 31 32 32 33 33 34 34 35 35 38 36 14 24 25 17 23 31 37 38 30 24 26 22 22 15 9 9 8 12 18 16 31 32 37 32 33 23 20 16 8 11 34 35 3 1 22
Wind_Direction_850mb
25 23 21 18 16 13 10 8 6 3 2 358 355 343 345 353 359 8 8 35 200 205 196 200 197 199 214 231 325 343 192 171 167 166 183 237 306 339 7 350 40 298 8 274 261 325 328
23 20 19 16 14 11 9 6 4 3 2 0 356 358 13 24 30 27 19 14 158 192 190 189 187 190 188 224 318 126 185 172 169 179 208 269 323 332 292 318 323 324 310 288 248 238 192
20 18 15 15 14 11 9 4 3 2 2 3 5 25 49 59 54 48 44 48 135 180 170 163 170 184 208 64 280 152 169 164 169 175 213 269 299 310 321 311 336 311 314 99 198 202 153
17 16 15 14 13 11 8 4 2 1 1 6 14 43 66 52 46 44 42 49 86 132 141 145 163 162 207 226 237 161 156 170 168 170 180 236 318 298 290 306 228 309 221 32 110 171 155
17 15 15 13 12 11 8 6 2 1 1 8 16 39 51 41 39 31 29 56 76 104 126 134 141 161 151 190 164 172 159 184 188 199 239 270 301 299 296 316 300 99 353 20 84 199 163
17 16 14 14 12 11 10 7 4 1 1 5 12 14 5 19 22 17 21 75 94 103 115 107 144 229 184 156 166 163 166 148 191 185 200 251 259 284 240 319 347 328 337 344 12 122 225
17 15 14 13 11 10 9 6 4 1 2 1 2 341 296 341 0 10 33 105 107 152 209 316 142 46 127 137 130 168 171 176 187 229 255 195 283 279 350 342 329 312 310 319 30 119 242
16 13 12 11 10 8 7 6 4 1 1 359 357 325 270 277 321 339 7 258 350 317 176 210 208 197 155 160 154 174 173 217 230 248 168 247 253 20 348 306 304 313 303 356 106 114 199
12 10 8 6 5 5 4 3 1 360 359 356 358 327 254 251 276 284 274 282 339 320 242 146 170 178 182 182 191 181 181 210 242 244 253 272 295 310 308 310 316 279 315 347 342 316 205
6 4 2 2 1 1 1 0 359 358 357 352 353 335 247 239 287 248 268 296 344 227 202 134 175 164 172 198 176 173 187 208 224 253 255 277 303 304 303 302 297 296 13 315 306 297 21
1 359 358 357 357 356 356 357 356 355 354 351 340 329 249 227 231 282 266 296 334 230 165 127 130 168 181 215 130 184 191 216 235 197 242 116 300 298 285 298 300 9 10 328 309 267 255
358 356 355 355 354 354 353 353 354 352 351 349 333 312 248 241 251 262 273 309 269 230 93 152 148 181 179 199 164 142 186 219 279 252 236 266 285 280 281 288 275 269 241 244 228 259 186
355 354 353 352 352 352 351 352 352 351 348 347 334 297 234 221 217 225 287 264 224 82 148 158 177 188 217 164 151 176 189 202 225 219 210 217 209 203 233 247 212 233 253 234 205 195 55
351 350 350 350 350 349 349 350 351 351 347 347 336 265 206 219 227 247 251 239 251 89 120 119 197 190 210 167 186 191 197 221 220 261 276 262 153 175 101 299 332 321 321 317 277 343 109
349 348 347 348 347 347 347 349 350 352 348 348 339 201 187 223 230 217 242 243 107 107 76 204 156 198 188 189 263 202 217 229 213 208 269 222 134 126 52 349 296 118 241 18 292 182 262
346 347 347 347 346 346 346 347 348 351 351 348 344 161 203 201 186 187 252 339 133 2 308 217 241 277 191 188 205 206 177 155 213 215 266 90 273 122 114 233 105 301 359 237 204 269 288
345 346 347 348 347 347 347 348 347 350 354 351 73 211 231 151 170 234 252 98 231 359 274 262 305 172 101 157 225 206 173 129 203 169 215 282 266 132 238 26 340 243 218 222 317 311 304
344 347 350 349 349 348 347 349 350 349 355 6 17 226 298 201 223 242 235 349 4 273 255 230 278 284 288 167 166 214 203 37 149 168 194 56 307 287 357 86 343 318 315 272 280 166 304
345 346 348 348 349 349 350 351 352 351 355 359 338 304 336 188 236 213 168 222 274 270 205 216 222 258 184 192 226 252 122 91 162 213 192 166 247 290 171 173 179 251 47 302 274 281 233
345 347 349 350 351 351 351 353 354 353 353 354 335 261 160 63 344 303 241 208 217 192 242 315 269 232 202 212 216 208 180 129 148 195 208 227 274 297 322 1 5 218 235 312 290 271 242
348 349 349 349 351 353 354 354 355 357 355 2 357 54 359 342 122 325 283 323 242 221 194 300 195 245 231 229 216 216 207 154 166 154 211 266 267 270 313 283 280 300 288 274 272 296 291
351 351 353 355 356 358 359 360 3 3 7 35 1 349 331 291 290 273 161 179 273 281 291 170 293 315 244 239 301 249 234 222 202 182 214 218 259 242 267 237 255 272 273 266 265 269 273
355 356 357 358 360 2 5 5 9 16 23 43 14 348 318 145 266 255 250 309 298 315 168 333 6 307 225 83 321 289 279 293 274 221 213 236 238 238 267 284 283 267 254 254 257 256 252
357 358 359 360 0 3 6 9 12 18 27 39 18 2 306 264 270 295 305 288 284 297 289 305 305 284 26 318 296 250 243 232 228 223 247 221 241 260 272 279 257 273 334 288 278 266 242
357 358 359 360 1 2 5 9 10 14 19 30 24 31 340 291 318 270 277 289 283 267 261 279 279 278 305 295 258 231 222 225 226 226 231 235 243 255 253 246 257 270 256 227 213 236 220
356 357 359 360 0 360 1 4 8 9 13 21 16 21 340 310 73 335 302 292 287 279 268 249 266 286 270 257 236 235 232 230 227 180 237 233 236 242 208 257 261 297 346 201 226 256 184
355 356 359 1 1 2 2 3 3 8 7 15 2 11 344 284 286 297 272 308 309 281 275 261 304 262 230 238 236 236 241 243 236 216 184 189 207 216 224 251 261 255 247 181 215 115 156
358 359 359 358 357 358 0 1 4 4 9 11 338 349 357 280 281 269 259 271 271 256 273 29 272 208 249 245 243 237 239 245 232 244 225 202 213 218 242 253 251 194 187 202 244 135 160
354 356 358 358 356 355 355 356 1 2 2 5 345 333 320 263 264 276 265 257 254 255 269 254 278 299 321 283 260 274 247 242 244 235 226 237 231 241 213 222 161 218 223 208 350 161 191